| time (UTC) | temp F | wind direction | speed MPH | gust MPH | rain 1hr in | rain 24hr in | rain mn in | humidity % | barometer mb |
| 20260906115116 | 71 | 51 | 3.0 | 6.0 | 0.00 | 0.00 | 0.00 | 95 | 1061.3 |
| 20260906114116 | 71 | 47 | 1.0 | 3.0 | 0.00 | 0.00 | 0.00 | 95 | 1061.4 |
| 20260906113116 | 71 | 30 | 3.0 | 6.0 | 0.00 | 0.00 | 0.00 | 95 | 1061.2 |
| 20260906112116 | 71 | 22 | 4.0 | 8.0 | 0.00 | 0.00 | 0.00 | 95 | 1060.8 |
| 20260906111114 | 71 | 46 | 4.0 | 7.0 | 0.00 | 0.00 | 0.00 | 95 | 1060.6 |
| 20260906110114 | 71 | 50 | 2.0 | 5.0 | 0.00 | 0.00 | 0.00 | 95 | 1060.7 |
| 20260906104114 | 71 | 45 | 0.0 | 1.0 | 0.00 | 0.00 | 0.00 | 93 | 1060.3 |
| 20260906103213 | 72 | 45 | 2.0 | 4.0 | 0.00 | 0.00 | 0.00 | 94 | 1060.1 |
| 20260906102214 | 72 | 45 | 1.0 | 3.0 | 0.00 | 0.00 | 0.00 | 93 | 1060.1 |
| 20260906100316 | 72 | 45 | 1.0 | 4.0 | 0.00 | 0.00 | 0.00 | 92 | 1059.9 |
| 20260906094317 | 73 | 5 | 2.0 | 6.0 | 0.00 | 0.00 | 0.00 | 92 | 1059.4 |
| 20260906091513 | 74 | 26 | 3.0 | 4.0 | 0.00 | 0.00 | 0.00 | 90 | 1059.4 |
| 20260906090612 | 74 | 7 | 2.0 | 4.0 | 0.00 | 0.00 | 0.00 | 90 | 1059.4 |
| 20260906085614 | 74 | 58 | 2.0 | 5.0 | 0.00 | 0.00 | 0.00 | 91 | 1059.2 |
| 20260906085516 | 74 | 34 | 1.0 | 4.0 | 0.00 | 0.00 | 0.00 | 90 | 1059.3 |
| 20260906084614 | 74 | 45 | 0.0 | 1.0 | 0.00 | 0.00 | 0.00 | 89 | 1059.4 |
| 20260906082617 | 75 | 16 | 1.0 | 3.0 | 0.00 | 0.00 | 0.00 | 89 | 1059.3 |
| 20260906081614 | 75 | 12 | 0.0 | 3.0 | 0.00 | 0.00 | 0.00 | 90 | 1059.3 |
| 20260906075614 | 75 | 22 | 1.0 | 3.0 | 0.00 | 0.00 | 0.00 | 89 | 1059.2 |
| 20260906075516 | 76 | 339 | 2.0 | 3.0 | 0.00 | 0.00 | 0.00 | 89 | 1059.2 |
| 20260906074515 | 76 | 358 | 0.0 | 0.0 | 0.00 | 0.00 | 0.00 | 89 | 1059.2 |
| 20260906073514 | 76 | 22 | 1.0 | 2.0 | 0.00 | 0.00 | 0.00 | 88 | 1059.2 |
| 20260906072515 | 77 | 337 | 0.0 | 0.0 | 0.00 | 0.00 | 0.00 | 88 | 1059.2 |
| 20260906072413 | 77 | 337 | 1.0 | 2.0 | 0.00 | 0.00 | 0.00 | 87 | 1059.2 |
| 20260906071414 | 77 | 22 | 0.0 | 0.0 | 0.00 | 0.00 | 0.00 | 88 | 1059.2 |
| 20260906070415 | 78 | 45 | 0.0 | 0.0 | 0.00 | 0.00 | 0.00 | 87 | 1059.2 |
| 20260906065415 | 78 | 45 | 1.0 | 2.0 | 0.00 | 0.00 | 0.00 | 87 | 1059.2 |
| 20260906064415 | 78 | 47 | 0.0 | 1.0 | 0.00 | 0.00 | 0.00 | 86 | 1059.6 |
| 20260906062514 | 79 | 15 | 3.0 | 5.0 | 0.00 | 0.00 | 0.00 | 86 | 1059.6 |
| 20260906053714 | 80 | 36 | 2.0 | 4.0 | 0.00 | 0.00 | 0.00 | 83 | 1059.7 |
| 20260906052813 | 80 | 33 | 3.0 | 5.0 | 0.00 | 0.00 | 0.00 | 84 | 1059.5 |
| 20260906051814 | 81 | 67 | 2.0 | 3.0 | 0.00 | 0.00 | 0.00 | 82 | 1059.6 |
| 20260906050815 | 81 | 28 | 2.0 | 4.0 | 0.00 | 0.00 | 0.00 | 81 | 1059.5 |
| 20260906045827 | 81 | 47 | 1.0 | 3.0 | 0.00 | 0.00 | 0.00 | 81 | 1059.4 |
| 20260906045726 | 81 | 48 | 5.0 | 8.0 | 0.00 | 0.00 | 0.00 | 82 | 1059.4 |
| 20260906044726 | 81 | 4 | 2.0 | 5.0 | 0.00 | 0.00 | 0.00 | 82 | 1059.2 |
| 20260906043725 | 81 | 14 | 2.0 | 3.0 | 0.00 | 0.00 | 0.00 | 82 | 1059.2 |
| 20260906042726 | 80 | 33 | 2.0 | 4.0 | 0.00 | 0.00 | 0.00 | 83 | 1059.2 |
| 20260906040725 | 78 | 45 | 0.0 | 1.0 | 0.00 | 0.00 | 0.00 | 83 | 1059.0 |
| 20260906035726 | 78 | 45 | 0.0 | 0.0 | 0.00 | 0.00 | 0.00 | 83 | 1059.0 |
| 20260906034726 | 79 | 45 | 0.0 | 0.0 | 0.00 | 0.00 | 0.00 | 83 | 1058.8 |
| 20260906033825 | 79 | 45 | 0.0 | 0.0 | 0.00 | 0.00 | 0.00 | 83 | 1058.8 |
| 20260906033724 | 79 | 45 | 0.0 | 0.0 | 0.00 | 0.00 | 0.00 | 82 | 1058.8 |
| 20260906031725 | 79 | 45 | 0.0 | 0.0 | 0.00 | 0.00 | 0.00 | 82 | 1058.6 |
| 20260906030726 | 79 | 45 | 0.0 | 0.0 | 0.00 | 0.00 | 0.00 | 82 | 1058.3 |
| 20260906025824 | 79 | 45 | 0.0 | 0.0 | 0.00 | 0.00 | 0.00 | 82 | 1058.4 |
| 20260906024924 | 79 | 45 | 0.0 | 0.0 | 0.00 | 0.00 | 0.00 | 80 | 1058.2 |
| 20260906022926 | 80 | 45 | 0.0 | 0.0 | 0.00 | 0.00 | 0.00 | 79 | 1058.2 |
| 20260906021926 | 80 | 45 | 0.0 | 0.0 | 0.00 | 0.00 | 0.00 | 79 | 1058.0 |
| 20260906021025 | 80 | 45 | 0.0 | 0.0 | 0.00 | 0.00 | 0.00 | 79 | 1057.9 |
| 20260906020940 | 80 | 45 | 0.0 | 0.0 | 0.00 | 0.00 | 0.00 | 78 | 1057.9 |
| 20260906015940 | 80 | 45 | 0.0 | 0.0 | 0.00 | 0.00 | 0.00 | 77 | 1057.9 |
| 20260906015827 | 80 | 45 | 0.0 | 0.0 | 0.00 | 0.00 | 0.00 | 77 | 1057.7 |
| 20260906014843 | 81 | 45 | 0.0 | 0.0 | 0.00 | 0.00 | 0.00 | 77 | 1057.6 |
| 20260906014725 | 81 | 45 | 0.0 | 0.0 | 0.00 | 0.00 | 0.00 | 77 | 1057.6 |
| 20260906014626 | 81 | 45 | 0.0 | 0.0 | 0.00 | 0.00 | 0.00 | 77 | 1057.5 |
| 20260906013626 | 81 | 45 | 0.0 | 0.0 | 0.00 | 0.00 | 0.00 | 76 | 1057.5 |
| 20260906012642 | 82 | 45 | 0.0 | 0.0 | 0.00 | 0.00 | 0.00 | 73 | 1057.4 |
| 20260906010627 | 83 | 45 | 0.0 | 0.0 | 0.00 | 0.00 | 0.00 | 70 | 1057.3 |
| 20260906005624 | 84 | 45 | 0.0 | 0.0 | 0.00 | 0.00 | 0.00 | 68 | 1057.1 |
| 20260906003625 | 86 | 45 | 0.0 | 0.0 | 0.00 | 0.00 | 0.00 | 62 | 1057.1 |
| 20260906003526 | 86 | 45 | 0.0 | 0.0 | 0.00 | 0.00 | 0.00 | 62 | 1057.2 |
| 20260906002525 | 88 | 45 | 0.0 | 0.0 | 0.00 | 0.00 | 0.00 | 59 | 1057.0 |
| 20260906001525 | 89 | 45 | 0.0 | 0.0 | 0.00 | 0.00 | 0.00 | 56 | 1057.1 |
| 20260905235527 | 92 | 45 | 0.0 | 0.0 | 0.00 | 0.00 | 0.00 | 51 | 1057.2 |
| 20260905234625 | 93 | 45 | 0.0 | 0.0 | 0.00 | 0.00 | 0.00 | 51 | 1057.1 |
| 20260905233624 | 94 | 360 | 0.0 | 0.0 | 0.00 | 0.00 | 0.00 | 50 | 1057.1 |
| 20260905232526 | 94 | 15 | 1.0 | 4.0 | 0.00 | 0.00 | 0.00 | 49 | 1056.9 |
| 20260905231527 | 95 | 16 | 2.0 | 4.0 | 0.00 | 0.00 | 0.00 | 49 | 1056.9 |
| 20260905230526 | 95 | 32 | 0.0 | 2.0 | 0.00 | 0.00 | 0.00 | 47 | 1056.8 |
| 20260905225625 | 95 | 40 | 1.0 | 2.0 | 0.00 | 0.00 | 0.00 | 47 | 1056.9 |
| 20260905223625 | 98 | 44 | 4.0 | 8.0 | 0.00 | 0.00 | 0.00 | 39 | 1056.9 |
| 20260905222627 | 99 | 288 | 3.0 | 6.0 | 0.00 | 0.00 | 0.00 | 38 | 1056.8 |
| 20260905221624 | 100 | 318 | 3.0 | 4.0 | 0.00 | 0.00 | 0.00 | 38 | 1056.6 |
| 20260905215724 | 99 | 32 | 2.0 | 4.0 | 0.00 | 0.00 | 0.00 | 40 | 1056.7 |
| 20260905210724 | 99 | 242 | 0.0 | 3.0 | 0.00 | 0.00 | 0.00 | 40 | 1057.1 |
| 20260905210626 | 99 | 62 | 0.0 | 4.0 | 0.00 | 0.00 | 0.00 | 40 | 1057.1 |
| 20260905205724 | 98 | 298 | 2.0 | 4.0 | 0.00 | 0.00 | 0.00 | 41 | 1057.0 |
| 20260905204726 | 99 | 297 | 0.0 | 3.0 | 0.00 | 0.00 | 0.00 | 39 | 1057.1 |
| 20260905203743 | 100 | 282 | 4.0 | 5.0 | 0.00 | 0.00 | 0.00 | 39 | 1057.1 |
| 20260905202726 | 101 | 288 | 3.0 | 6.0 | 0.00 | 0.00 | 0.00 | 37 | 1057.4 |
| 20260905201727 | 100 | 286 | 3.0 | 7.0 | 0.00 | 0.00 | 0.00 | 39 | 1057.5 |
| 20260905200824 | 99 | 28 | 3.0 | 5.0 | 0.00 | 0.00 | 0.00 | 40 | 1057.7 |
| 20260905194925 | 99 | 345 | 1.0 | 4.0 | 0.00 | 0.00 | 0.00 | 41 | 1057.6 |
| 20260905193924 | 98 | 285 | 2.0 | 5.0 | 0.00 | 0.00 | 0.00 | 42 | 1057.8 |
| 20260905193024 | 98 | 203 | 1.0 | 3.0 | 0.00 | 0.00 | 0.00 | 43 | 1057.7 |
| 20260905192025 | 98 | 237 | 2.0 | 8.0 | 0.00 | 0.00 | 0.00 | 42 | 1058.0 |
| 20260905191123 | 99 | 327 | 3.0 | 5.0 | 0.00 | 0.00 | 0.00 | 43 | 1058.2 |
| 20260905190127 | 98 | 334 | 2.0 | 6.0 | 0.00 | 0.00 | 0.00 | 42 | 1058.3 |
| 20260905185124 | 97 | 247 | 0.0 | 0.0 | 0.00 | 0.00 | 0.00 | 44 | 1058.4 |
| 20260905184123 | 97 | 225 | 5.0 | 7.0 | 0.00 | 0.00 | 0.00 | 43 | 1058.5 |
| 20260905183125 | 98 | 278 | 4.0 | 6.0 | 0.00 | 0.00 | 0.00 | 42 | 1058.7 |
| 20260905182126 | 97 | 347 | 2.0 | 5.0 | 0.00 | 0.00 | 0.00 | 43 | 1058.8 |
| 20260905181126 | 97 | 228 | 6.0 | 11.0 | 0.00 | 0.00 | 0.00 | 44 | 1058.9 |
| 20260905181024 | 97 | 230 | 6.0 | 8.0 | 0.00 | 0.00 | 0.00 | 44 | 1058.9 |
| 20260905180023 | 97 | 279 | 4.0 | 5.0 | 0.00 | 0.00 | 0.00 | 43 | 1058.9 |
| 20260905175042 | 97 | 300 | 4.0 | 7.0 | 0.00 | 0.00 | 0.00 | 45 | 1058.9 |
| 20260905173123 | 95 | 1 | 4.0 | 6.0 | 0.00 | 0.00 | 0.00 | 46 | 1059.1 |
| 20260905173041 | 95 | 268 | 4.0 | 6.0 | 0.00 | 0.00 | 0.00 | 47 | 1059.2 |
| 20260905172024 | 96 | 239 | 4.0 | 7.0 | 0.00 | 0.00 | 0.00 | 47 | 1059.3 |
| 20260905170026 | 97 | 197 | 2.0 | 5.0 | 0.00 | 0.00 | 0.00 | 46 | 1059.5 |
| 20260905165123 | 97 | 270 | 1.0 | 2.0 | 0.00 | 0.00 | 0.00 | 48 | 1059.6 |
| 20260905164123 | 96 | 356 | 2.0 | 5.0 | 0.00 | 0.00 | 0.00 | 50 | 1059.8 |
| 20260905163125 | 94 | 225 | 2.0 | 4.0 | 0.00 | 0.00 | 0.00 | 52 | 1059.7 |
| 20260905162223 | 94 | 261 | 3.0 | 4.0 | 0.00 | 0.00 | 0.00 | 52 | 1059.8 |
| 20260905161322 | 93 | 38 | 3.0 | 7.0 | 0.00 | 0.00 | 0.00 | 54 | 1060.0 |
| 20260905160323 | 93 | 237 | 3.0 | 6.0 | 0.00 | 0.00 | 0.00 | 53 | 1060.1 |
| 20260905154340 | 92 | 313 | 3.0 | 4.0 | 0.00 | 0.00 | 0.00 | 54 | 1060.1 |
| 20260905154226 | 92 | 245 | 4.0 | 5.0 | 0.00 | 0.00 | 0.00 | 55 | 1060.1 |
| 20260905153225 | 92 | 237 | 1.0 | 4.0 | 0.00 | 0.00 | 0.00 | 55 | 1060.3 |
| 20260905151324 | 90 | 253 | 2.0 | 4.0 | 0.00 | 0.00 | 0.00 | 60 | 1060.2 |
| 20260905151227 | 90 | 332 | 1.0 | 3.0 | 0.00 | 0.00 | 0.00 | 61 | 1060.1 |
| 20260905151123 | 89 | 313 | 1.0 | 2.0 | 0.00 | 0.00 | 0.00 | 61 | 1060.2 |
| 20260905150125 | 89 | 234 | 4.0 | 6.0 | 0.00 | 0.00 | 0.00 | 61 | 1060.2 |
| 20260905150024 | 89 | 229 | 2.0 | 3.0 | 0.00 | 0.00 | 0.00 | 61 | 1060.3 |
| 20260905145027 | 88 | 244 | 1.0 | 2.0 | 0.00 | 0.00 | 0.00 | 62 | 1060.1 |
| 20260905144123 | 87 | 225 | 3.0 | 5.0 | 0.00 | 0.00 | 0.00 | 64 | 1060.1 |
| 20260905143124 | 87 | 268 | 0.0 | 2.0 | 0.00 | 0.00 | 0.00 | 66 | 1060.2 |
| 20260905141125 | 87 | 247 | 1.0 | 2.0 | 0.00 | 0.00 | 0.00 | 67 | 1060.2 |
| 20260905140124 | 87 | 225 | 0.0 | 1.0 | 0.00 | 0.00 | 0.00 | 69 | 1060.4 |
| 20260905135125 | 87 | 225 | 2.0 | 3.0 | 0.00 | 0.00 | 0.00 | 73 | 1060.4 |
| 20260905133224 | 83 | 225 | 1.0 | 2.0 | 0.00 | 0.00 | 0.00 | 87 | 1060.4 |
| 20260905133124 | 83 | 197 | 0.0 | 2.0 | 0.00 | 0.00 | 0.00 | 88 | 1060.4 |
| 20260905132124 | 81 | 157 | 0.0 | 0.0 | 0.00 | 0.00 | 0.00 | 92 | 1060.4 |
| 20260905131224 | 79 | 157 | 0.0 | 0.0 | 0.00 | 0.00 | 0.00 | 96 | 1060.3 |
| 20260905125323 | 75 | 157 | 0.0 | 0.0 | 0.00 | 0.00 | 0.00 | 96 | 1060.1 |
| 20260905124323 | 75 | 157 | 0.0 | 0.0 | 0.00 | 0.00 | 0.00 | 97 | 1060.2 |
| 20260905123324 | 75 | 157 | 0.0 | 0.0 | 0.00 | 0.00 | 0.00 | 96 | 1060.1 |
| 20260905123224 | 75 | 157 | 0.0 | 0.0 | 0.00 | 0.00 | 0.00 | 97 | 1060.2 |
| 20260905122222 | 74 | 157 | 0.0 | 0.0 | 0.00 | 0.00 | 0.00 | 96 | 1060.1 |
| 20260905121322 | 73 | 157 | 0.0 | 0.0 | 0.00 | 0.00 | 0.00 | 97 | 1060.0 |
| 20260905120340 | 72 | 157 | 0.0 | 0.0 | 0.00 | 0.00 | 0.00 | 96 | 1060.1 |
| 20260905120223 | 72 | 157 | 0.0 | 0.0 | 0.00 | 0.00 | 0.00 | 97 | 1060.1 |